KF6RAL-6 Weather Reports


Display with metric or nautical units.
time (UTC)temp
F
wind
direction
speed
MPH
gust
MPH
rain 1hr
in
rain 24hr
in
rain mn
in
humidity
%
barometer
mb
20240301003423 59 76 9.0 15.0 0.00 0.00 0.00 30 1006.0
20240301002723 61 88 5.0 15.0 0.00 0.00 0.00 26 1005.6
20240301002021 61 69 2.0 11.0 0.00 0.00 0.00 25 1005.7
20240301001321 61 0 0.0 6.0 0.00 0.00 0.00 25 1005.7
20240301000621 61 0 0.0 6.0 0.00 0.00 0.00 25 1005.9
20240229235918 61 125 2.0 23.0 0.00 0.00 0.00 24 1006.1
20240229235217 61 116 4.0 16.0 0.00 0.00 0.00 24 1006.2
20240229234517 61 125 9.0 25.0 0.00 0.00 0.00 24 1006.3
20240229233815 61 192 1.0 27.0 0.00 0.00 0.00 25 1006.3
20240229233114 60 124 7.0 20.0 0.00 0.00 0.00 25 1006.7
20240229232413 59 127 4.0 11.0 0.00 0.00 0.00 25 1007.0
20240229231713 59 167 1.0 11.0 0.00 0.00 0.00 26 1007.1
20240229231011 59 207 3.0 28.0 0.00 0.00 0.00 27 1007.2
20240229230310 58 241 8.0 28.0 0.00 0.00 0.00 27 1007.5
20240229225609 58 229 18.0 32.0 0.00 0.00 0.00 28 1007.5
20240229224908 60 171 7.0 18.0 0.00 0.00 0.00 25 1007.3
20240229224207 60 218 3.0 18.0 0.00 0.00 0.00 25 1007.3
20240229223506 60 145 5.0 19.0 0.00 0.00 0.00 25 1007.5
20240229222805 59 115 9.0 19.0 0.00 0.00 0.00 25 1007.6
20240229222104 59 92 2.0 14.0 0.00 0.00 0.00 25 1007.7
20240229221403 59 49 2.0 7.0 0.00 0.00 0.00 25 1007.8
20240229220702 59 172 3.0 21.0 0.00 0.00 0.00 24 1007.9
20240229220001 59 262 5.0 39.0 0.00 0.00 0.00 24 1007.9
20240229215300 59 227 15.0 31.0 0.00 0.00 0.00 27 1007.8
20240229214559 59 235 11.0 17.0 0.00 0.00 0.00 26 1008.0
20240229213858 59 145 4.0 15.0 0.00 0.00 0.00 25 1008.3
20240229212456 56 28 3.0 11.0 0.00 0.00 0.00 36 1008.2
20240229211755 55 323 6.0 11.0 0.00 0.00 0.00 39 1008.3
20240229211054 54 339 5.0 11.0 0.00 0.00 0.00 32 1008.8
20240229210353 53 277 6.0 11.0 0.00 0.00 0.00 44 1009.1
20240229205652 51 47 8.0 14.0 0.00 0.00 0.00 40 1008.9
20240229204951 50 271 5.0 13.0 0.00 0.00 0.00 45 1009.2
20240229204250 49 3 6.0 10.0 0.00 0.00 0.00 50 1009.3
20240229203549 49 33 4.0 11.0 0.00 0.00 0.00 49 1009.6
20240229202848 48 248 7.0 11.0 0.00 0.00 0.00 54 1010.0
20240229202147 47 266 2.0 5.0 0.00 0.00 0.00 55 1010.4
20240229201446 47 0 0.0 9.0 0.00 0.00 0.00 54 1010.5
20240229200745 46 16 5.0 10.0 0.00 0.00 0.00 54 1010.5
20240229200044 47 13 6.0 10.0 0.00 0.00 0.00 56 1010.4
20240229195343 46 42 5.0 7.0 0.00 0.00 0.00 56 1010.8
20240229194642 46 346 3.0 6.0 0.00 0.00 0.00 56 1011.0
20240229193941 46 38 4.0 7.0 0.00 0.00 0.00 50 1011.2
20240229193240 45 336 2.0 9.0 0.00 0.00 0.00 51 1011.5
20240229192539 44 349 5.0 7.0 0.00 0.00 0.00 54 1010.8
20240229191137 45 8 5.0 9.0 0.00 0.00 0.00 50 1011.8
20240229190437 44 19 4.0 6.0 0.00 0.00 0.00 49 1011.2
20240229185735 43 24 2.0 7.0 0.00 0.00 0.00 54 1011.5
20240229185035 43 286 1.0 5.0 0.00 0.00 0.00 53 1011.4
20240229184333 43 295 3.0 10.0 0.00 0.00 0.00 53 1011.6
20240229182931 43 351 5.0 7.0 0.00 0.00 0.00 54 1011.4
20240229182230 43 16 4.0 6.0 0.00 0.00 0.00 54 1011.4
20240229181529 43 21 2.0 6.0 0.00 0.00 0.00 53 1011.6
20240229180828 43 24 2.0 5.0 0.00 0.00 0.00 52 1011.6
20240229180127 42 342 2.0 5.0 0.00 0.00 0.00 54 1011.6
20240229175426 42 5 3.0 7.0 0.00 0.00 0.00 55 1011.6
20240229174725 42 21 3.0 7.0 0.00 0.00 0.00 57 1011.7
20240229174024 41 40 1.0 5.0 0.00 0.00 0.00 57 1011.9
20240229173323 41 5 2.0 5.0 0.00 0.00 0.00 57 1011.9
20240229172622 41 318 1.0 4.0 0.00 0.00 0.00 60 1012.1
20240229171921 40 271 1.0 4.0 0.00 0.00 0.00 62 1012.1
20240229171220 40 306 2.0 5.0 0.00 0.00 0.00 60 1012.2
20240229170519 40 298 3.0 6.0 0.00 0.00 0.00 59 1011.9
20240229165818 40 18 4.0 6.0 0.00 0.00 0.00 58 1011.9
20240229165116 40 0 0.0 6.0 0.00 0.00 0.00 58 1012.1
20240229164416 41 38 4.0 6.0 0.00 0.00 0.00 59 1012.1
20240229163715 41 360 2.0 7.0 0.00 0.00 0.00 58 1012.3
20240229163014 40 48 4.0 10.0 0.00 0.00 0.00 58 1012.2
20240229162312 41 37 7.0 10.0 0.00 0.00 0.00 58 1012.2
20240229161611 40 53 1.0 6.0 0.00 0.00 0.00 60 1012.4
20240229160911 40 44 3.0 6.0 0.00 0.00 0.00 61 1012.7
20240229160209 39 59 2.0 5.0 0.00 0.00 0.00 64 1013.1
20240229155508 38 69 3.0 5.0 0.00 0.00 0.00 67 1013.0
20240229154807 37 60 2.0 4.0 0.00 0.00 0.00 68 1013.2
20240229154106 36 51 3.0 6.0 0.00 0.00 0.00 69 1012.7
20240229153405 36 62 4.0 6.0 0.00 0.00 0.00 70 1012.6
20240229152704 36 52 3.0 4.0 0.00 0.00 0.00 72 1012.9
20240229152003 35 0 0.0 4.0 0.00 0.00 0.00 73 1012.9
20240229151302 35 73 3.0 5.0 0.00 0.00 0.00 72 1012.9
20240229150601 36 62 2.0 5.0 0.00 0.00 0.00 72 1012.9
20240229145901 36 56 3.0 5.0 0.00 0.00 0.00 70 1012.8
20240229145159 36 57 1.0 3.0 0.00 0.00 0.00 69 1012.8
20240229144458 36 0 0.0 4.0 0.00 0.00 0.00 67 1013.0
20240229143758 36 0 0.0 5.0 0.00 0.00 0.00 68 1012.9
20240229143058 37 0 0.0 7.0 0.00 0.00 0.00 66 1013.3
20240229142355 37 67 3.0 7.0 0.00 0.00 0.00 65 1013.3
20240229141654 36 0 0.0 4.0 0.00 0.00 0.00 66 1012.8
20240229140954 36 104 1.0 4.0 0.00 0.00 0.00 68 1012.9
20240229140252 36 92 2.0 4.0 0.00 0.00 0.00 69 1012.8
20240229135551 36 94 2.0 4.0 0.00 0.00 0.00 70 1013.1
20240229134850 35 90 1.0 3.0 0.00 0.00 0.00 71 1013.5
20240229134149 35 0 0.0 3.0 0.00 0.00 0.00 73 1013.5
20240229132747 35 100 1.0 3.0 0.00 0.00 0.00 73 1013.5
20240229132046 35 0 0.0 4.0 0.00 0.00 0.00 72 1013.6
20240229131345 35 0 0.0 2.0 0.00 0.00 0.00 72 1013.7
20240229130644 35 0 0.0 1.0 0.00 0.00 0.00 72 1013.6
20240229125943 35 0 0.0 3.0 0.00 0.00 0.00 72 1013.7
20240229125242 34 0 0.0 2.0 0.00 0.00 0.00 73 1013.4
20240229124541 35 0 0.0 3.0 0.00 0.00 0.00 75 1013.2
20240229123842 35 95 1.0 3.0 0.00 0.00 0.00 76 1013.0
20240229123139 35 0 0.0 1.0 0.00 0.00 0.00 76 1013.1
20240229122438 34 0 0.0 2.0 0.00 0.00 0.00 75 1013.4
20240229121737 34 0 0.0 3.0 0.00 0.00 0.00 75 1013.4
20240229121037 34 0 0.0 3.0 0.00 0.00 0.00 75 1013.5
20240229120335 35 0 0.0 3.0 0.00 0.00 0.00 74 1013.2
20240229115634 35 0 0.0 4.0 0.00 0.00 0.00 74 1013.2
20240229114933 35 86 2.0 4.0 0.00 0.00 0.00 73 1013.0
20240229114232 35 0 0.0 0.0 0.00 0.00 0.00 73 1013.0
20240229113531 35 0 0.0 2.0 0.00 0.00 0.00 73 1013.2
20240229112830 35 131 1.0 3.0 0.00 0.00 0.00 72 1013.2
20240229112129 35 0 0.0 1.0 0.00 0.00 0.00 72 1013.4
20240229111428 35 0 0.0 0.0 0.00 0.00 0.00 72 1013.4
20240229110727 35 0 0.0 2.0 0.00 0.00 0.00 71 1013.4
20240229110251 35 0 0.0 2.0 0.00 0.00 0.00 71 1013.5
20240229110026 35 0 0.0 2.0 0.00 0.00 0.00 71 1013.5
20240229105325 35 0 0.0 1.0 0.00 0.00 0.00 71 1013.6
20240229104624 35 0 0.0 2.0 0.00 0.00 0.00 71 1013.7
20240229103923 35 0 0.0 2.0 0.00 0.00 0.00 71 1013.7
20240229103226 36 0 0.0 0.0 0.00 0.00 0.00 71 1013.8
20240229102521 35 0 0.0 0.0 0.00 0.00 0.00 70 1013.9
20240229101820 35 0 0.0 2.0 0.00 0.00 0.00 70 1013.9
20240229101119 35 207 1.0 3.0 0.00 0.00 0.00 70 1013.9
20240229100418 35 205 2.0 5.0 0.00 0.00 0.00 71 1014.1
20240229095717 34 212 2.0 5.0 0.00 0.00 0.00 73 1014.8
20240229095016 34 214 2.0 7.0 0.00 0.00 0.00 73 1014.8
20240229094315 34 200 5.0 7.0 0.00 0.00 0.00 75 1014.9
20240229093614 33 217 2.0 5.0 0.00 0.00 0.00 74 1015.1
20240229092913 33 209 4.0 5.0 0.00 0.00 0.00 73 1015.2
20240229092212 33 220 3.0 5.0 0.00 0.00 0.00 72 1015.3
20240229091511 34 0 0.0 2.0 0.00 0.00 0.00 72 1015.4
20240229090810 34 0 0.0 1.0 0.00 0.00 0.00 72 1015.5
20240229090109 34 0 0.0 2.0 0.00 0.00 0.00 72 1015.2
20240229085408 34 0 0.0 3.0 0.00 0.00 0.00 73 1015.2
20240229084707 33 79 1.0 4.0 0.00 0.00 0.00 72 1015.6
20240229084006 33 87 1.0 6.0 0.00 0.00 0.00 72 1015.6
20240229083305 34 68 5.0 6.0 0.00 0.00 0.00 71 1015.3
20240229082604 34 83 3.0 5.0 0.00 0.00 0.00 71 1015.4
20240229081903 35 78 3.0 4.0 0.00 0.00 0.00 71 1015.5
20240229081202 35 86 2.0 3.0 0.00 0.00 0.00 71 1015.6
20240229080501 35 96 2.0 4.0 0.00 0.00 0.00 71 1015.7
20240229075800 35 85 1.0 3.0 0.00 0.00 0.00 71 1015.7
20240229075059 34 92 1.0 3.0 0.00 0.00 0.00 72 1016.1
20240229074358 34 90 1.0 4.0 0.00 0.00 0.00 72 1016.1
20240229073657 34 89 2.0 4.0 0.00 0.00 0.00 72 1016.1
20240229072956 34 88 2.0 4.0 0.00 0.00 0.00 71 1016.2
20240229072255 34 81 2.0 4.0 0.00 0.00 0.00 71 1016.2
20240229071554 35 86 1.0 2.0 0.00 0.00 0.00 70 1015.9
20240229070853 35 0 0.0 2.0 0.00 0.00 0.00 70 1016.0
20240229070152 35 0 0.0 0.0 0.00 0.00 0.00 69 1016.3
20240229064750 36 85 2.0 3.0 0.00 0.00 0.00 68 1016.4
20240229064049 36 100 1.0 3.0 0.00 0.00 0.00 67 1016.5
20240229063348 36 118 1.0 4.0 0.00 0.00 0.00 66 1016.5
20240229062647 36 118 1.0 3.0 0.00 0.00 0.00 66 1016.6
20240229061947 36 121 1.0 3.0 0.00 0.00 0.00 66 1016.6
20240229061245 36 120 1.0 2.0 0.00 0.00 0.00 66 1016.7
20240229055843 36 119 2.0 4.0 0.00 0.00 0.00 66 1016.7
20240229055142 36 0 0.0 2.0 0.00 0.00 0.00 67 1016.7
20240229054441 36 110 1.0 3.0 0.00 0.00 0.00 65 1016.7
20240229053739 36 110 1.0 3.0 0.00 0.00 0.00 66 1016.7
20240229052337 36 113 1.0 5.0 0.00 0.00 0.00 67 1016.7
20240229051636 36 101 1.0 4.0 0.00 0.00 0.00 65 1016.8
20240229050935 36 123 2.0 3.0 0.00 0.00 0.00 66 1016.9
20240229050235 36 123 2.0 3.0 0.00 0.00 0.00 66 1016.9
20240229045533 36 123 2.0 3.0 0.00 0.00 0.00 66 1016.3
20240229044832 37 123 1.0 3.0 0.00 0.00 0.00 66 1016.4
20240229044132 37 123 1.0 3.0 0.00 0.00 0.00 66 1016.3
20240229043430 37 123 1.0 3.0 0.00 0.00 0.00 66 1016.3
20240229042729 37 123 2.0 3.0 0.00 0.00 0.00 66 1016.4
20240229042030 37 0 0.0 3.0 0.00 0.00 0.00 64 1016.3
20240229041327 37 123 1.0 3.0 0.00 0.00 0.00 65 1016.3
20240229040626 37 123 2.0 3.0 0.00 0.00 0.00 66 1016.3
20240229035925 37 0 0.0 2.0 0.00 0.00 0.00 69 1016.3
20240229035224 37 0 0.0 2.0 0.00 0.00 0.00 68 1016.3
20240229034523 37 123 1.0 2.0 0.00 0.00 0.00 68 1016.3
20240229033121 37 123 1.0 4.0 0.00 0.00 0.00 66 1016.3
20240229032420 37 120 1.0 3.0 0.00 0.00 0.00 66 1016.3
20240229031719 37 120 1.0 3.0 0.00 0.00 0.00 66 1016.4
20240229031018 37 120 1.0 3.0 0.00 0.00 0.00 66 1016.5
20240229030317 37 120 1.0 3.0 0.00 0.00 0.00 66 1016.5
20240229025616 38 120 1.0 2.0 0.00 0.00 0.00 64 1016.8
20240229024915 38 0 0.0 2.0 0.00 0.00 0.00 63 1016.9
20240229024214 38 0 0.0 2.0 0.00 0.00 0.00 63 1016.8
20240229023514 38 0 0.0 2.0 0.00 0.00 0.00 61 1016.8
20240229022812 39 0 0.0 2.0 0.00 0.00 0.00 61 1016.8
20240229022111 39 0 0.0 2.0 0.00 0.00 0.00 61 1016.9
20240229020710 39 0 0.0 3.0 0.00 0.00 0.00 61 1016.9
20240229020008 40 0 0.0 2.0 0.00 0.00 0.00 60 1016.6
20240229015307 40 0 0.0 2.0 0.00 0.00 0.00 59 1016.9
20240229014606 40 0 0.0 1.0 0.00 0.00 0.00 59 1016.9
20240229013905 41 0 0.0 2.0 0.00 0.00 0.00 57 1017.0
20240229013205 41 0 0.0 3.0 0.00 0.00 0.00 56 1017.0
20240229012503 42 285 1.0 3.0 0.00 0.00 0.00 56 1016.8
20240229011802 42 0 0.0 3.0 0.00 0.00 0.00 56 1016.8
20240229011101 43 0 0.0 3.0 0.00 0.00 0.00 55 1016.7
20240229010400 43 306 1.0 2.0 0.00 0.00 0.00 55 1016.7
20240229005702 43 0 0.0 4.0 0.00 0.00 0.00 56 1017.0
20240229004958 43 294 1.0 4.0 0.00 0.00 0.00 55 1017.0
20240229004257 43 0 0.0 5.0 0.00 0.00 0.00 56 1016.9